Terminal Aerodrome Forecast
Issued by NWS

Home | Current Version | Previous Version | Text Only | Print | Product List | Glossary On
Versions: 1 2 3 4 5 6 7 8 9 10 11 12 13 14 15 16 17 18 19 20 21 22
000
FTUS43 KDVN 231500 AAA
TAFCID
TAF AMD
KCID 231501Z 2315/2412 12012KT P6SM OVC100
     FM231800 15015G21KT P6SM -SHRA OVC070
     FM240000 12017G26KT P6SM VCSH BKN060
     FM240900 12015G22KT 5SM SHRA BR VCTS OVC035CB=

USA.gov is the U.S. government's official web portal to all federal, state and local government web resources and services.